Regional Weather Roundup
Issued by NWS Cleveland, OH

Home | Current Version | Previous Version | Graphics & Text | Print | Product List | Glossary On
Versions: 1 2 3 4 5 6 7 8 9 10 11 12 13 14 15 16 17 18 19 20 21 22 23 24 25 26 27 28 29 30 31 32 33 34 35 36 37 38 39 40 41 42 43 44 45 46 47 48 49 50
000
ASUS41 KCLE 211302
RWRCLE
OHIO REGIONAL WEATHER ROUNDUP
NATIONAL WEATHER SERVICE CLEVELAND, OH
900 AM EDT SAT OCT 21 2017

NOTE: "FAIR" INDICATES FEW OR NO CLOUDS BELOW 12,000 FEET WITH NO
SIGNIFICANT WEATHER AND/OR OBSTRUCTIONS TO VISIBILITY.

OHZ001>008-015>018-024>027-034-035-043-044-211400-
   NORTHWEST OHIO

CITY           SKY/WX    TMP DP  RH WIND       PRES   REMARKS
DEFIANCE       CLOUDY    54  50  86 S3        30.22R
FINDLAY        PTSUNNY   54  47  77 SE6       30.23R
TOLEDO EXPRESS CLOUDY    53  51  93 CALM      30.22R
TOLEDO EXEC    MOSUNNY   54  48  80 SE5       30.24R
LIMA           MOSUNNY   56  52  86 S7        30.23R
$$

OHZ009>014-019>023-028>033-038-089-211400-
   NORTHEAST OHIO

CITY           SKY/WX    TMP DP  RH WIND       PRES   REMARKS
CLE-HOPKINS    PTSUNNY   52  43  71 CALM      30.29R
CLE-LAKEFRONT  MOSUNNY   55  42  61 SE12      30.26R
CUY CO. ARPT   MOSUNNY   59  43  55 S9        30.28R
LORAIN-ELYRIA  MOSUNNY   50  39  66 S5        30.27R
ASHTABULA      CLOUDY    48  42  80 S5        30.31R
AKRON-CANTON   CLOUDY    54  43  66 SE5       30.29R
WOOSTER        CLOUDY    46  45  96 CALM      30.29R
MANSFIELD      MOSUNNY   55  44  66 S7        30.27R
YOUNGSTOWN     CLOUDY    50  42  74 SE7       30.30R
$$

OHZ042-051>053-060>062-070>072-077>081-211400-
  SOUTHWEST OHIO

CITY           SKY/WX    TMP DP  RH WIND       PRES   REMARKS
CINC-COVINGTON CLOUDY    53  52  96 S7        30.23R
CINC-LUNKEN    FOG       49  49 100 CALM      30.26R VSB<1/4
HAMILTON       CLOUDY    51  50  96 CALM      30.25R FOG
DAYTON         PTSUNNY   55  54  96 SE6       30.25R
WRIGHT-PAT AFB NOT AVBL
DAYTON GENERAL MOSUNNY   57  52  83 S6        30.24R
WILMINGTON     CLOUDY    54  52  93 SE3       30.25R
$$

OHZ036-037-039>041-045>050-054>059-063>069-073>076-082>088-211400-
  CENTRAL AND SOUTHEAST OHIO

CITY           SKY/WX    TMP DP  RH WIND       PRES   REMARKS
COLUMBUS       CLOUDY    53  48  83 CALM      30.26R
OSU AIRPORT    MOSUNNY   50  46  86 CALM      30.26R
BOLTON FIELD   SUNNY     46  46 100 CALM      30.27R
RICKENBACK AFB CLOUDY    48  47  95 CALM      30.26R
NEWARK         SUNNY     48  45  89 CALM      30.28R
MARION         MOSUNNY   55  43  63 S7        30.26R
LANCASTER      MOSUNNY   47  45  93 CALM      30.27R
ZANESVILLE     SUNNY     48  44  86 CALM      30.28R
NEW PHILLY     NOT AVBL
$$




USA.gov is the U.S. government's official web portal to all federal, state and local government web resources and services.